Location: Gołdap
(54.3084°N, 22.3049°E)
Time: 22:18:08
(UTC+01:00)

ISS - Visible Passes

Search period start: 19 January 2018 00:00
Search period end: 29 January 2018 00:00
Orbit: 402 x 407 km, 51.6° (Epoch: 20 January)

Date Brightness Start Highest point End Pass type
(mag) Time Alt. Az. Time Alt. Az. Time Alt. Az.
27 Jan -1.5 18:04:56 10° S 18:06:11 14° SSE 18:06:11 14° SSE visible
28 Jan -1.3 17:14:22 10° SSE 17:14:49 10° SE 17:15:17 10° SE visible
28 Jan -1.5 18:47:36 10° SW 18:48:46 18° SSW 18:48:46 18° SSW visible
